{"data":{"norad_id":41188,"intl_designator":"2015-081K","name":"ORBCOMM FM117","alt_names":[],"object_type":"PAYLOAD","status":"ACTIVE","operator":null,"country":"ORB","launch_date":"2015-12-22","launch_site_code":"AFETR","launch_vehicle":null,"mission":null,"orbit_class":"UNKNOWN","rcs_meters":0.535,"size_class":null,"mass_kg":null,"dimensions":null,"purposes":["comms"],"wikipedia_slug":null,"has_3d_model":false,"image_url":null,"decayed_at":null,"tle_current":{"epoch":"2026-05-25T02:29:50.777088Z","epoch_age_seconds":59987,"freshness":"FRESH","line1":"1 41188U 15081K   26145.10405992  .00000484  00000+0  13868-3 0  9999","line2":"2 41188  47.0017 289.9716 0002409 109.6740 250.4406 14.58830341556753","mean_motion":14.58830341,"eccentricity":0.0002409,"inclination_deg":47.0017,"raan_deg":289.9716,"arg_perigee_deg":109.674,"mean_anomaly_deg":250.4406,"bstar":0.00013868,"rev_number":55675,"period_min":98.709216522938,"perigee_km":695.2488451978,"apogee_km":698.65762367275,"semimajor_km":7075.0902344353,"source":"CELESTRAK","updated_at":"2026-05-25T13:38:22.867199Z"}}}